Prerov, Czech Republic

10:17 PM CET on March 24, 2017 (GMT +0100)
Prerov

Weather History for LKPO - May, 2013

Change the Weather History Date:

Tuesday, May 7, 2013

  Actual Average Record
Temperature  
Mean Temperature 63 °F -  
Max Temperature 69 °F - - ()
Min Temperature 57 °F - - ()
Degree Days  
Heating Degree Days 2    
Growing Degree Days 13 (Base 50)    
Moisture  
Dew Point 57 °F    
Average Humidity 81    
Maximum Humidity 94    
Minimum Humidity 64    
Precipitation  
Precipitation 0.00 in - - ()
Sea Level Pressure  
Sea Level Pressure 30.04 in    
Wind  
Wind Speed 4 mph ()    
Max Wind Speed 8 mph    
Max Gust Speed -    
Visibility 6.2 miles    
Events Rain    
T = Trace of Precipitation, MM = Missing Value Source: Averaged Metar Reports

Daily Weather History Graph

Daily Weather History Graph

Search for Another Location

Airport or City:

Trip Planner

Search our weather history database for the weather conditions in past years. The results will help you decide how hot, cold, wet, or windy it might be!

Date:

Astronomy

May. 07, 2013 Rise Set
Actual Time 5:18 AM CEST 8:16 PM CEST
Civil Twilight 4:41 AM CEST 8:53 PM CEST
Nautical Twilight 3:53 AM CEST 9:42 PM CEST
Astronomical Twilight 2:54 AM CEST 10:41 PM CEST
Moon 3:57 AM CEST (5/7) 5:47 PM CEST (5/7)
Length of Visible Light 16h 12m
Length of Day
14h 58m
Waning Crescent, 7% of the Moon is Illuminated
May 7
Waning Crescent
May 10
New
May 18
First Quarter
May 25
Full
May 31
Last Quarter

Hourly Weather History & Observations

Time (CEST) Temp. Dew Point Humidity Pressure Visibility Wind Dir Wind Speed Gust Speed Precip Events Conditions
12:00 AM 57.2 °F 55.4 °F 94% 30.04 in - East 3.5 mph - N/A   Clear
1:00 AM 57.2 °F 53.6 °F 88% 30.04 in - Variable 2.3 mph - N/A   Clear
2:00 AM 57.2 °F 53.6 °F 88% 30.04 in - Variable 2.3 mph - N/A   Clear
3:00 AM 57.2 °F 53.6 °F 88% 30.04 in 6.2 mi Variable 2.3 mph - N/A   Mostly Cloudy
4:00 AM 59.0 °F 55.4 °F 88% 30.04 in - Variable 2.3 mph - N/A   Clear
5:00 AM 57.2 °F 53.6 °F 88% 30.04 in - ENE 4.6 mph - N/A   Clear
6:00 AM 59.0 °F 55.4 °F 88% 30.04 in - East 4.6 mph - N/A   Clear
7:00 AM 59.0 °F 55.4 °F 88% 30.04 in - East 5.8 mph - N/A   Clear
8:00 AM 60.8 °F 57.2 °F 88% 30.04 in - East 4.6 mph - N/A   Clear
9:00 AM 62.6 °F 57.2 °F 82% 30.06 in - East 5.8 mph - N/A   Clear
10:00 AM 64.4 °F 59.0 °F 83% 30.06 in - SSE 4.6 mph - N/A   Clear
10:32 AM 64.4 °F 59.0 °F 83% 30.06 in 6.2 mi SE 5.8 mph - N/A Rain Light Rain
11:00 AM 64.4 °F 60.8 °F 88% 30.06 in 6.2 mi ESE 4.6 mph - N/A Rain Light Rain
12:00 PM 66.2 °F 59.0 °F 78% 30.06 in - ESE 5.8 mph - N/A   Clear
1:00 PM 68.0 °F 57.2 °F 68% 30.06 in 6.2 mi SE 8.1 mph - N/A   Mostly Cloudy
2:00 PM 69.8 °F 57.2 °F 64% 30.04 in 6.2 mi SSE 5.8 mph - N/A   Mostly Cloudy
3:00 PM 69.8 °F 59.0 °F 68% 30.04 in 6.2 mi SE 8.1 mph - N/A   Mostly Cloudy
4:00 PM 69.8 °F 60.8 °F 73% 30.04 in 6.2 mi SSE 6.9 mph - N/A   Mostly Cloudy
5:00 PM 69.8 °F 59.0 °F 68% 30.01 in 6.2 mi SSE 6.9 mph - N/A   Mostly Cloudy
6:00 PM 69.8 °F 59.0 °F 68% 30.01 in 6.2 mi SE 4.6 mph - N/A   Mostly Cloudy
7:00 PM 69.8 °F 59.0 °F 68% 30.01 in - ESE 3.5 mph - N/A   Clear
8:00 PM 66.2 °F 59.0 °F 78% 30.01 in - ESE 3.5 mph - N/A   Clear
9:00 PM 62.6 °F 59.0 °F 88% 30.01 in - Variable 1.2 mph - N/A   Clear
10:00 PM 64.4 °F 57.2 °F 77% 30.01 in - ESE 5.8 mph - N/A   Clear
11:00 PM 60.8 °F 57.2 °F 88% 30.01 in - Variable 2.3 mph - N/A   Clear